Showing default

SALSAT, 46495

Orbit data source: Space-Track

SALSAT, 46495 is a payload satellite owned by TUB (DE) in SSO that was launched on Mon, 28 Sep 2020 UTC via a SOYUZ-2-1B launch vehicle from the Plesetsk Missile And Space Complex (PKMTR). Payload-class satellites include a variety of spacecraft equipped with specific instruments for various scientific and technological missions. These include communications satellites like Starlink; space stations such as the ISS; scientific satellites like the Hubble; Earth observation satellites from companies like Planet Labs, Umbra, and HawkEye 360; GPS; miniature CubeSats for education and research; and military/defense satellites.

Loading next visibility...
Identifier
46495, 2020-068K
Orbit
SSO
Country
Flag of DEDE / GER
Related business
Manufacturer
TUB
Mission
Operational Amateur Sigint
Bus & Motor
TUBIX10, Unknown motor
Mass
12 kg wet, 12 kg dry
Launch date (UTC)
2020-09-28 (5 years ago)
Launch vehicle
SOYUZ-2-1B
Launch site
Plesetsk Missile And Space Complex (PKMTR)
Object type
Payload
Rocket body
Debris
Shape & HBR
Box, 1.0 m
Radar Cross Section
0.086 m², Medium (>0.1 m² and < 1m²)

Expand to show TLE details & history
Last TLE update: 5 hours ago

TLE from 5 hours ago
0 SALSAT
1 46495U 20068K   26035.46742804  .00010533  00000-0  39397-3 0  9991
2 46495  97.8826  30.6958 0011858  54.3040 305.9299 15.27465777295082
Epoch: 2026-02-04T11:13Z
TLE epoch observation values (Epoch: 2026-02-04T11:13:05.782Z)
Latitude
-0.00009°
Longitude
87.78813°
Altitude
481.708 km
Speed
7.627 km/s
True Right ascension
02h 02m 46s
True Declination
0° 00' 00"
Sunlit
Object was in daylight at epoch
Visualization orbit readout
Latitude
Unknown
Longitude
Unknown
Altitude
Unknown
Speed
Unknown
Apparent Right ascension
Unknown
Apparent Declination
Unknown
Sunlit
N/A
Visualization observer readout
Local Sidereal Time
17:55:26
Azimuth
Unknown
Elevation
Unknown
Doppler factor
Unknown
Orbital elements
Apogee altitude
488.501 km
Perigee altitude
472.235 km
Semi-major axis
6,858.505 km
Eccentricity
0.00119
Inclination
97.8826°
RAAN
30.6958°
Arg. of periapsis
54.304°
True anomaly
305.81978°
Mean anomaly
305.9299°
Eccentric anomaly
305.87485°
Mean motion
3.82119 °/min
Orbital period
94.21 mins
BSTAR
0.00039397
Loading maneuver chart data...
Computing Atmospheric mass density...
Loading historical data...
Loading historical data...
Loading historical data...
Loading historical data...
Loading historical data...
Loading historical data...
Loading historical data...

Documentation

Showing up to 5 results
|